Location: Arrodets-la-Barthe
(43.0306°N, 0.2829°E)
Time: 13:42:21
(UTC+00:00)

Cosmos 389 Rocket - Pass Details

Date: 24 October 2021
Orbit: 438 x 468 km, 81.1° (Epoch: 07 December)

Event Time Altitude Azimuth Distance (km) Brightness Sun altitude
Rises 17:31:35 0° 207° (SSW) 2,414 6.7 -6.1°
Reaches altitude 10° 17:33:44 10° 216° (SW) 1,552 5.9 -6.5°
Maximum altitude 17:36:52 35° 285° (WNW) 733 4.2 -7.1°
Drops below altitude 10° 17:40:04 10° 353° (N) 1,576 5.1 -7.6°
Sets 17:42:16 0° 2° (N) 2,458 6.0 -8.0°
